FW4102 Weather Reports


time (UTC)temp
C
wind
direction
speed
KPH
gust
KPH
rain 1hr
cm
rain 24hr
cm
rain mn
cm
humidity
%
barometer
mb
20260506221536 7 0 0.0 1.6 0.00 0.43 0.00 65 1027.9
20260506220044 7 0 0.0 1.6 0.00 0.43 0.00 65 1027.7
20260506214537 7 0 0.0 3.2 0.00 0.43 0.00 65 1027.4
20260506213054 7 199 0.0 4.8 0.00 0.43 0.00 64 1027.3
20260506211542 7 0 0.0 0.0 0.00 0.46 0.00 64 1027.1
20260506210037 7 199 0.0 6.4 0.00 0.46 0.00 65 1026.9
20260506204539 7 0 0.0 6.4 0.00 0.46 0.00 65 1026.8
20260506203037 7 0 0.0 3.2 0.00 0.46 0.00 65 1026.6
20260506201537 7 0 0.0 4.8 0.00 0.46 0.00 65 1026.5
20260506200037 7 0 0.0 4.8 0.00 0.46 0.00 64 1026.5
20260506194538 7 0 0.0 3.2 0.00 0.46 0.00 64 1026.4
20260506193035 7 0 1.6 6.4 0.00 0.46 0.00 64 1026.3
20260506191537 8 199 1.6 8.0 0.00 0.46 0.00 64 1026.3
20260506190038 8 201 0.0 4.8 0.00 0.46 0.00 64 1026.2
20260506184538 8 201 0.0 8.0 0.00 0.46 0.00 63 1025.9
20260506183041 8 0 0.0 8.0 0.00 0.46 0.00 63 1025.8
20260506181543 8 0 1.6 9.7 0.00 0.46 0.00 62 1025.5
20260506180037 8 0 3.2 8.0 0.00 0.46 0.00 62 1025.7
20260506174536 8 195 1.6 8.0 0.00 0.46 0.00 61 1025.6
20260506173043 8 194 0.0 9.7 0.00 0.46 0.00 61 1025.7
20260506171535 8 200 3.2 11.3 0.00 0.46 0.00 61 1025.8
20260506170041 8 169 3.2 22.5 0.00 0.46 0.00 60 1025.7
20260506164538 8 0 1.6 9.7 0.00 0.46 0.00 59 1025.8
20260506163037 8 158 0.0 4.8 0.00 0.46 0.00 59 1025.6
20260506161537 8 158 1.6 8.0 0.00 0.46 0.00 59 1025.7
20260506160039 8 157 0.0 4.8 0.00 0.46 0.00 58 1025.8
20260506154539 8 157 0.0 8.0 0.00 0.46 0.00 57 1025.6
20260506153035 8 157 1.6 4.8 0.00 0.46 0.00 57 1025.6
20260506151535 9 155 1.6 8.0 0.00 0.46 0.00 57 1025.7
20260506150035 9 150 3.2 17.7 0.00 0.46 0.00 55 1025.8
20260506144537 9 198 1.6 4.8 0.00 0.46 0.00 55 1025.6
20260506143035 9 198 1.6 9.7 0.00 0.46 0.00 55 1025.5
20260506141535 9 210 4.8 12.9 0.00 0.46 0.46 56 1025.5
20260506140037 9 111 4.8 17.7 0.00 0.46 0.46 57 1025.5
20260506134535 9 182 0.0 9.7 0.00 0.46 0.46 57 1025.5
20260506133035 9 185 3.2 12.9 0.00 0.46 0.46 58 1025.4
20260506131546 9 207 3.2 14.5 0.00 0.46 0.46 59 1025.4
20260506130039 9 167 4.8 17.7 0.00 0.46 0.46 59 1025.4
20260506124536 9 195 1.6 14.5 0.00 0.46 0.46 59 1025.2
20260506123038 9 182 0.0 8.0 0.00 0.46 0.46 59 1025.2
20260506121537 9 202 1.6 9.7 0.00 0.46 0.46 59 1025.1
20260506120037 9 181 1.6 8.0 0.00 0.46 0.46 60 1024.9
20260506114537 9 193 1.6 9.7 0.00 0.46 0.46 61 1024.9
20260506113037 10 173 3.2 11.3 0.00 0.46 0.46 62 1024.7
20260506111533 10 0 1.6 8.0 0.00 0.46 0.46 63 1024.4
20260506110038 10 166 3.2 9.7 0.00 0.46 0.46 63 1024.4
20260506104541 10 163 4.8 16.1 0.00 0.46 0.46 63 1024.4
20260506103039 10 0 0.0 9.7 0.00 0.46 0.46 63 1024.0
20260506101537 10 198 3.2 16.1 0.00 0.46 0.46 64 1023.9
20260506100037 10 0 0.0 9.7 0.00 0.46 0.46 64 1023.8
20260506094547 11 199 0.0 11.3 0.00 0.46 0.46 64 1023.6
20260506093039 11 206 3.2 20.9 0.00 0.46 0.46 64 1023.4
20260506091538 11 0 3.2 14.5 0.00 0.43 0.43 64 1023.2
20260506090037 11 187 3.2 14.5 0.00 0.43 0.43 64 1023.0
20260506084541 12 139 1.6 16.1 0.00 0.43 0.43 64 1022.7
20260506083035 12 186 1.6 14.5 0.00 0.43 0.43 64 1022.5
20260506081540 12 0 3.2 19.3 0.00 0.43 0.43 65 1022.2
20260506073039 13 194 1.6 6.4 0.00 0.43 0.43 61 1021.7
20260506071536 13 190 1.6 9.7 0.00 0.43 0.43 61 1021.5
20260506061537 14 202 1.6 12.9 0.00 0.43 0.43 59 1021.4
20260506044541 13 202 3.2 17.7 0.03 0.43 0.43 64 1020.9
20260506043037 13 220 1.6 8.0 0.03 0.43 0.43 64 1020.9
20260506041537 13 202 1.6 11.3 0.03 0.43 0.43 64 1021.1
20260506040042 13 0 1.6 12.9 0.05 0.43 0.43 64 1021.1
20260506034535 13 252 1.6 8.0 0.20 0.38 0.38 64 1021.0
20260506033036 13 255 3.2 11.3 0.28 0.38 0.38 64 1021.1
20260506031537 13 249 3.2 16.1 0.28 0.38 0.38 63 1021.1
20260506030039 13 234 1.6 14.5 0.25 0.36 0.36 62 1021.1
20260506024546 13 276 4.8 19.3 0.03 0.15 0.15 61 1021.1
20260506023040 13 290 9.7 20.9 0.00 0.10 0.10 60 1021.3
20260506021538 14 274 6.4 16.1 0.00 0.10 0.10 60 1021.6
20260506020037 14 0 4.8 19.3 0.00 0.10 0.10 60 1021.9
20260506014541 14 278 4.8 22.5 0.00 0.10 0.10 61 1022.1
20260506013037 13 295 4.8 29.0 0.00 0.10 0.10 63 1022.1
20260506011537 13 286 6.4 22.5 0.00 0.10 0.10 65 1022.2
20260506010036 13 265 6.4 12.9 0.00 0.10 0.10 66 1022.2
20260506004538 13 272 6.4 19.3 0.00 0.10 0.10 67 1022.1
20260506003039 13 272 4.8 14.5 0.00 0.10 0.10 67 1022.2
20260506001539 13 0 4.8 16.1 0.05 0.10 0.10 67 1022.4
20260506000037 12 0 6.4 17.7 0.05 0.10 0.10 66 1022.2
20260505234537 12 0 4.8 12.9 0.05 0.10 0.10 66 1022.2
20260505233035 12 268 3.2 16.1 0.05 0.10 0.10 66 1022.2
20260505231549 12 267 3.2 16.1 0.00 0.05 0.05 65 1022.2
20260505230049 12 259 3.2 12.9 0.00 0.05 0.05 65 1022.1
20260505224538 12 255 3.2 12.9 0.00 0.05 0.05 65 1021.9
20260505223037 12 250 4.8 14.5 0.03 0.05 0.05 65 1022.0